Tracking 29594 objects as of 20-Sep-2024
HD Live streaming from Space Station
objects crossing your sky now

FENGYUN 1C DEB

Track FENGYUN 1C DEB now!
10-day predictions


NORAD ID: 31345
Int'l Code: 1999-025BQZ
Perigee: 823.3 km
Apogee: 925.7 km
Inclination: 98.1 °
Period: 102.3 minutes
Semi major axis: 7245 km
RCS: 0.0093 m2 (small)
Launch date: May 10, 1999
Source: People's Republic of China (PRC)
Launch site: Taiyaun Space Center, China (TSC)

Note: This is SATELLITE DEBRIS
Your satellite tracking list
Your tracking list is empty




NASA's NSSDC Master Catalog

Two Line Element Set (TLE):
1 31345U 99025BQZ 24256.37027459  .00006905  00000-0  40133-2 0  9990
2 31345  98.0907 308.9415 0070673 316.9339  42.6315 14.07657610890700
Source of the keplerian elements: AFSPC